Location: Norton
(51.3000°N, 0.8167°E)
Time: 02:02:12
(UTC+00:00)

Cosmos 2366 rocket - Pass Details

Date: 03 March 2021
Orbit: 954 x 997 km, 82.9° (Epoch: 13 April)

Event Time Altitude Azimuth Distance (km) Brightness Sun altitude
Rises 20:06:50 0° 192° (SSW) 3,685 6.9 -23.3°
Reaches altitude 10° 20:09:20 10° 193° (SSW) 2,745 6.3 -23.6°
Maximum altitude 20:15:39 80° 280° (W) 1,018 4.1 -24.5°
Drops below altitude 10° 20:22:04 10° 8° (N) 2,779 6.5 -25.5°
Sets 20:24:37 0° 10° (N) 3,733 7.2 -25.8°
